This is the latest recevied weather packets stored in our database for station/object K5DLF-13. If no packets are shown the sender has not sent any weather packets the latest 10 day(s).
| Time | Temp. | Humidity | Pressure | Rain* | Wind** | Luminosity | Snow |
|---|---|---|---|---|---|---|---|
| 1777984798 | 23.33° C | 93% | 1006.6 hPa | 0 mm | - | 19 W/m² | - |
| 1777984498 | 23.33° C | 93% | 1006.5 hPa | 0 mm | - | 14 W/m² | - |
| 1777984198 | 23.33° C | 93% | 1006.3 hPa | 0 mm | - | 14 W/m² | - |
| 1777983898 | 23.33° C | 94% | 1006.4 hPa | 0 mm | - | 18 W/m² | - |
| 1777983598 | 22.78° C | 94% | 1006.5 hPa | 0 mm | - | 28 W/m² | - |
| 1777983298 | 22.78° C | 94% | 1006.5 hPa | 0 mm | - | 42 W/m² | - |
| 1777982998 | 22.78° C | 94% | 1006.6 hPa | 0 mm | - | 23 W/m² | - |
| 1777982698 | 22.78° C | 94% | 1006.6 hPa | 0 mm | - | 21 W/m² | - |
| 1777982398 | 22.78° C | 93% | 1006.6 hPa | 0 mm | - | 14 W/m² | - |
| 1777982098 | 22.78° C | 93% | 1006.5 hPa | 0 mm | - | 5 W/m² | - |
| 1777981798 | 22.78° C | 93% | 1006.6 hPa | 0 mm | - | 0 W/m² | - |
| 1777981498 | 22.78° C | 93% | 1006.5 hPa | 0 mm | - | 0 W/m² | - |
| 1777981198 | 22.78° C | 93% | 1006.4 hPa | 0 mm | - | 0 W/m² | - |
| 1777980898 | 22.78° C | 93% | 1006.3 hPa | 0 mm | - | 0 W/m² | - |
| 1777980598 | 22.78° C | 93% | 1006.3 hPa | 0 mm | - | 0 W/m² | - |
| 1777980298 | 22.78° C | 93% | 1006.5 hPa | 0 mm | - | 0 W/m² | - |
| 1777979998 | 22.78° C | 93% | 1006.7 hPa | 0 mm | - | 0 W/m² | - |
| 1777979698 | 22.78° C | 93% | 1006.7 hPa | 0 mm | - | 0 W/m² | - |
| 1777979398 | 22.78° C | 93% | 1006.7 hPa | 0 mm | - | 0 W/m² | - |
| 1777979098 | 22.78° C | 93% | 1006.7 hPa | 0 mm | - | 0 W/m² | - |
| 1777978798 | 22.78° C | 93% | 1006.5 hPa | 0 mm | - | 0 W/m² | - |
| 1777978498 | 22.78° C | 93% | 1006.4 hPa | 0 mm | - | 0 W/m² | - |
| 1777978198 | 22.78° C | 93% | 1006.2 hPa | 0 mm | - | 0 W/m² | - |
| 1777977898 | 22.78° C | 93% | 1006.3 hPa | 0 mm | - | 0 W/m² | - |
| 1777977598 | 22.78° C | 93% | 1006.2 hPa | 0 mm | - | 0 W/m² | - |
* Rain latest hour (hover to see other rain measurements)
** Current wind speed in m/s (hover to see current wind gust speed)